�������l�o���
Date,Time,MP-1(��Sv/h),MP-2(��Sv/h),MP-3(��Sv/h),MP-4(��Sv/h),MP-5(��Sv/h),MP-6(��Sv/h),MP-7(��Sv/h),MP-8(��Sv/h),����,����(m/s),���J
2020/12/30,00:00,0.686,0.977,0.620,1.226,0.865,0.387,0.683,0.641,��,3.5,��
2020/12/30,00:10,0.685,0.975,0.619,1.229,0.866,0.385,0.680,0.639,��쓌,2.3,��
2020/12/30,00:20,0.684,0.975,0.618,1.228,0.865,0.386,0.680,0.639,��쐼,0.9,��
2020/12/30,00:30,0.685,0.974,0.620,1.229,0.864,0.384,0.680,0.640,�쐼,2.3,��
2020/12/30,00:40,0.685,0.976,0.618,1.230,0.865,0.386,0.680,0.639,�쐼,3.2,��
2020/12/30,00:50,0.686,0.973,0.621,1.227,0.867,0.385,0.681,0.638,�쐼,4.2,��
2020/12/30,01:00,0.684,0.974,0.619,1.229,0.866,0.385,0.681,0.640,���쐼,2.6,��
2020/12/30,01:10,0.683,0.974,0.618,1.227,0.864,0.387,0.681,0.639,���쐼,2.0,��
2020/12/30,01:20,0.684,0.974,0.620,1.229,0.866,0.385,0.681,0.639,��,2.6,��
2020/12/30,01:30,0.685,0.977,0.620,1.228,0.868,0.385,0.681,0.640,�k��,2.6,��
2020/12/30,01:40,0.687,0.976,0.621,1.229,0.864,0.386,0.680,0.640,�k��,2.5,��
2020/12/30,01:50,0.685,0.973,0.620,1.228,0.864,0.386,0.681,0.640,��,2.6,��
2020/12/30,02:00,0.688,0.975,0.621,1.230,0.865,0.385,0.681,0.640,��,3.0,��
2020/12/30,02:10,0.687,0.974,0.618,1.228,0.864,0.386,0.680,0.640,��,3.1,��
2020/12/30,02:20,0.686,0.975,0.619,1.228,0.866,0.384,0.681,0.639,���k��,3.6,��
2020/12/30,02:30,0.687,0.974,0.621,1.227,0.865,0.387,0.681,0.641,��,3.8,��
2020/12/30,02:40,0.686,0.976,0.619,1.230,0.862,0.387,0.680,0.640,��,4.8,��
2020/12/30,02:50,0.688,0.976,0.618,1.229,0.866,0.387,0.683,0.641,���k��,7.1,��
2020/12/30,03:00,0.687,0.973,0.621,1.229,0.865,0.385,0.681,0.639,���k��,5.8,��
2020/12/30,03:10,0.686,0.977,0.623,1.228,0.864,0.387,0.682,0.640,���k��,5.9,��
2020/12/30,03:20,0.686,0.977,0.619,1.229,0.865,0.385,0.682,0.640,���k��,5.5,��
2020/12/30,03:30,0.687,0.976,0.620,1.229,0.866,0.386,0.681,0.640,���k��,4.3,��
2020/12/30,03:40,0.686,0.975,0.619,1.227,0.866,0.385,0.682,0.640,���k��,1.4,��
2020/12/30,03:50,0.685,0.977,0.620,1.230,0.865,0.386,0.682,0.641,��쐼,1.5,��
2020/12/30,04:00,0.686,0.975,0.621,1.228,0.864,0.385,0.681,0.641,��,1.4,��
2020/12/30,04:10,0.686,0.974,0.620,1.228,0.865,0.385,0.681,0.640,��쐼,1.7,��
2020/12/30,04:20,0.687,0.975,0.621,1.229,0.865,0.386,0.682,0.643,�쐼,1.7,��
2020/12/30,04:30,0.687,0.974,0.621,1.231,0.864,0.387,0.682,0.639,��,1.9,��
2020/12/30,04:40,0.689,0.974,0.621,1.230,0.866,0.384,0.681,0.641,��쐼,1.5,��
2020/12/30,04:50,0.687,0.974,0.621,1.229,0.867,0.387,0.680,0.641,�쓌,3.6,��
2020/12/30,05:00,0.687,0.973,0.621,1.229,0.863,0.386,0.681,0.641,��쓌,2.8,��
2020/12/30,05:10,0.686,0.974,0.620,1.227,0.865,0.385,0.682,0.641,��쓌,3.3,��
2020/12/30,05:20,0.687,0.974,0.621,1.229,0.866,0.386,0.681,0.639,��,3.2,��
2020/12/30,05:30,0.686,0.976,0.620,1.230,0.867,0.386,0.681,0.640,�쐼,2.6,��
2020/12/30,05:40,0.687,0.973,0.619,1.229,0.864,0.386,0.682,0.641,��쐼,3.3,��
2020/12/30,05:50,0.686,0.973,0.620,1.227,0.864,0.386,0.682,0.640,�쐼,3.1,��
2020/12/30,06:00,0.687,0.974,0.619,1.229,0.864,0.387,0.680,0.640,�쐼,2.6,��
2020/12/30,06:10,0.687,0.976,0.619,1.228,0.865,0.387,0.681,0.640,���쐼,2.2,��
2020/12/30,06:20,0.687,0.975,0.620,1.229,0.864,0.386,0.682,0.642,���쐼,1.7,��
2020/12/30,06:30,0.687,0.974,0.621,1.230,0.864,0.387,0.680,0.640,��,1.7,��
2020/12/30,06:40,0.685,0.975,0.619,1.227,0.865,0.385,0.682,0.641,�k��,1.7,��
2020/12/30,06:50,0.687,0.975,0.620,1.230,0.864,0.387,0.683,0.641,�k��,2.5,��
2020/12/30,07:00,0.686,0.973,0.619,1.230,0.865,0.386,0.682,0.639,�k��,4.4,��
2020/12/30,07:10,0.686,0.976,0.619,1.228,0.866,0.387,0.682,0.641,�k��,5.9,��
2020/12/30,07:20,0.687,0.974,0.620,1.228,0.865,0.386,0.683,0.640,�k��,5.7,��
2020/12/30,07:30,0.686,0.976,0.620,1.229,0.864,0.387,0.682,0.641,�k��,5.6,��
2020/12/30,07:40,0.687,0.976,0.619,1.231,0.866,0.386,0.681,0.640,�k��,6.1,��
2020/12/30,07:50,0.685,0.976,0.620,1.229,0.866,0.386,0.682,0.641,�k�k��,5.2,��
2020/12/30,08:00,0.687,0.977,0.620,1.233,0.865,0.386,0.682,0.640,�k��,6.4,��
2020/12/30,08:10,0.689,0.975,0.621,1.230,0.866,0.388,0.683,0.640,�k��,5.8,��
2020/12/30,08:20,0.687,0.977,0.623,1.232,0.867,0.386,0.683,0.641,�k��,6.8,��
2020/12/30,08:30,0.688,0.977,0.620,1.229,0.866,0.387,0.682,0.642,�k��,6.3,��
2020/12/30,08:40,0.689,0.978,0.620,1.231,0.864,0.387,0.684,0.640,�k��,5.3,��
2020/12/30,08:50,0.688,0.975,0.620,1.230,0.865,0.386,0.683,0.641,�k�k��,7.0,��
2020/12/30,09:00,0.687,0.977,0.621,1.229,0.867,0.387,0.685,0.640,�k�k��,7.3,��
2020/12/30,09:10,0.689,0.977,0.622,1.232,0.865,0.387,0.683,0.642,�k�k��,6.9,��
2020/12/30,09:20,0.688,0.977,0.622,1.233,0.866,0.386,0.683,0.641,�k�k��,7.5,��
2020/12/30,09:30,0.687,0.977,0.621,1.232,0.868,0.388,0.682,0.641,�k�k��,7.0,��
2020/12/30,09:40,0.689,0.977,0.621,1.232,0.866,0.387,0.682,0.641,�k�k��,7.5,��
2020/12/30,09:50,0.688,0.976,0.622,1.231,0.864,0.386,0.682,0.642,�k�k��,7.3,��
2020/12/30,10:00,0.689,0.977,0.621,1.228,0.867,0.385,0.681,0.640,�k�k��,7.2,��
2020/12/30,10:10,0.688,0.976,0.622,1.231,0.867,0.387,0.681,0.644,�k�k��,7.1,��
2020/12/30,10:20,0.686,0.975,0.622,1.232,0.867,0.387,0.682,0.639,�k�k��,7.3,�L
2020/12/30,10:30,0.686,0.975,0.622,1.231,0.867,0.387,0.682,0.642,�k�k��,7.2,�L
2020/12/30,10:40,0.688,0.978,0.621,1.231,0.866,0.386,0.682,0.641,�k�k��,7.1,�L
2020/12/30,10:50,0.687,0.977,0.622,1.232,0.867,0.388,0.682,0.640,�k�k��,7.5,�L
2020/12/30,11:00,0.690,0.977,0.621,1.233,0.865,0.388,0.682,0.642,�k�k��,7.2,�L
2020/12/30,11:10,0.689,0.977,0.623,1.233,0.865,0.388,0.682,0.641,�k�k��,6.6,�L
2020/12/30,11:20,0.690,0.978,0.622,1.232,0.865,0.390,0.681,0.641,�k�k��,6.5,�L
2020/12/30,11:30,0.686,0.972,0.623,1.230,0.864,0.392,0.683,0.643,�k��,6.5,�L
2020/12/30,11:40,0.686,0.966,0.622,1.229,0.861,0.391,0.683,0.639,�k�k��,6.3,�L
2020/12/30,11:50,0.686,0.964,0.622,1.222,0.859,0.390,0.681,0.639,�k,5.1,�L
2020/12/30,12:00,0.683,0.959,0.625,1.213,0.852,0.393,0.680,0.638,�k�k��,6.3,�L
2020/12/30,12:10,0.682,0.956,0.627,1.210,0.850,0.393,0.679,0.637,�k�k��,5.0,�L
2020/12/30,12:20,0.680,0.955,0.627,1.208,0.847,0.394,0.678,0.638,�k�k��,5.0,�L
2020/12/30,12:30,0.682,0.954,0.625,1.205,0.847,0.394,0.678,0.637,�k�k��,5.2,�L
2020/12/30,12:40,0.681,0.955,0.626,1.201,0.847,0.393,0.677,0.637,�k�k��,6.1,�L
2020/12/30,12:50,0.683,0.948,0.623,1.195,0.843,0.393,0.677,0.636,�k,7.0,�L
2020/12/30,13:00,0.682,0.949,0.624,1.193,0.841,0.394,0.675,0.637,�k�k��,9.5,�L
2020/12/30,13:10,0.681,0.949,0.622,1.193,0.842,0.394,0.675,0.636,�k,8.3,�L
2020/12/30,13:20,0.685,0.948,0.621,1.190,0.842,0.393,0.674,0.637,�k,8.7,�L
2020/12/30,13:30,0.681,0.949,0.619,1.189,0.840,0.394,0.677,0.636,�k,9.1,�L
2020/12/30,13:40,0.679,0.946,0.619,1.192,0.840,0.392,0.675,0.635,�k,8.4,�L
2020/12/30,13:50,0.680,0.944,0.615,1.191,0.838,0.391,0.674,0.635,�k,10.5,�L
2020/12/30,14:00,0.675,0.940,0.614,1.187,0.839,0.389,0.677,0.635,�k,10.5,�L
2020/12/30,14:10,0.674,0.941,0.613,1.186,0.838,0.388,0.676,0.635,�k,9.6,�L
2020/12/30,14:20,0.674,0.936,0.613,1.185,0.836,0.389,0.674,0.635,�k,11.0,�L
2020/12/30,14:30,0.672,0.934,0.611,1.182,0.837,0.388,0.675,0.632,�k,12.2,�L
2020/12/30,14:40,0.671,0.937,0.611,1.181,0.835,0.389,0.673,0.632,�k,12.2,�L
2020/12/30,14:50,0.672,0.937,0.612,1.181,0.833,0.388,0.671,0.633,�k�k��,10.2,�L
2020/12/30,15:00,0.668,0.937,0.611,1.180,0.833,0.387,0.672,0.633,�k�k��,8.6,�L
2020/12/30,15:10,0.668,0.936,0.609,1.180,0.835,0.386,0.672,0.632,�k�k��,7.9,�L
2020/12/30,15:20,0.669,0.933,0.608,1.180,0.834,0.386,0.671,0.631,�k�k��,9.2,�L
2020/12/30,15:30,0.666,0.935,0.606,1.177,0.833,0.385,0.670,0.631,�k�k��,9.7,�L
2020/12/30,15:40,0.668,0.934,0.603,1.181,0.832,0.384,0.671,0.631,�k�k��,10.2,�L
2020/12/30,15:50,0.666,0.932,0.603,1.179,0.831,0.383,0.670,0.632,�k�k��,8.2,�L
2020/12/30,16:00,0.667,0.931,0.603,1.178,0.832,0.383,0.671,0.631,�k�k��,9.7,�L
2020/12/30,16:10,0.664,0.931,0.600,1.180,0.830,0.383,0.671,0.632,�k�k��,10.3,�L
2020/12/30,16:20,0.663,0.930,0.602,1.177,0.831,0.383,0.671,0.631,�k�k��,7.1,�L
2020/12/30,16:30,0.662,0.929,0.601,1.176,0.833,0.382,0.670,0.629,�k�k��,11.3,�L
2020/12/30,16:40,0.662,0.930,0.600,1.175,0.831,0.383,0.669,0.630,�k�k��,11.3,�L
2020/12/30,16:50,0.661,0.929,0.603,1.174,0.829,0.381,0.669,0.630,�k�k��,9.8,�L
2020/12/30,17:00,0.661,0.929,0.600,1.173,0.828,0.382,0.669,0.632,�k�k��,10.2,�L
2020/12/30,17:10,0.661,0.927,0.599,1.175,0.827,0.381,0.670,0.630,�k�k��,10.2,�L
2020/12/30,17:20,0.658,0.928,0.599,1.175,0.827,0.380,0.669,0.629,�k�k��,8.6,�L
2020/12/30,17:30,0.661,0.928,0.600,1.176,0.830,0.381,0.670,0.629,�k�k��,9.9,�L
2020/12/30,17:40,0.663,0.931,0.602,1.179,0.830,0.382,0.669,0.629,�k�k��,9.1,�L
2020/12/30,17:50,0.665,0.931,0.603,1.178,0.831,0.387,0.670,0.630,�k�k��,13.3,�L
2020/12/30,18:00,0.661,0.932,0.603,1.180,0.832,0.386,0.670,0.630,�k�k��,10.8,�L
2020/12/30,18:10,0.662,0.931,0.603,1.177,0.831,0.385,0.669,0.630,�k�k��,11.1,�L
2020/12/30,18:20,0.661,0.933,0.603,1.178,0.828,0.383,0.670,0.630,�k�k��,11.3,�L
2020/12/30,18:30,0.659,0.932,0.603,1.175,0.830,0.382,0.671,0.630,�k�k��,10.5,�L
2020/12/30,18:40,0.657,0.930,0.600,1.178,0.829,0.381,0.668,0.629,�k�k��,10.3,��
2020/12/30,18:50,0.658,0.933,0.599,1.178,0.828,0.382,0.668,0.631,�k�k��,9.2,��
2020/12/30,19:00,0.657,0.931,0.599,1.177,0.829,0.380,0.669,0.628,�k�k��,9.4,��
2020/12/30,19:10,0.656,0.927,0.599,1.177,0.827,0.378,0.669,0.628,�k�k��,9.6,��
2020/12/30,19:20,0.657,0.930,0.599,1.174,0.827,0.378,0.666,0.626,�k�k��,7.6,��
2020/12/30,19:30,0.657,0.930,0.598,1.178,0.827,0.378,0.667,0.627,�k�k��,8.0,��
2020/12/30,19:40,0.657,0.930,0.598,1.173,0.826,0.377,0.667,0.629,�k�k��,10.9,��
2020/12/30,19:50,0.657,0.932,0.597,1.175,0.827,0.378,0.667,0.629,�k�k��,8.3,��
2020/12/30,20:00,0.656,0.929,0.597,1.174,0.826,0.377,0.668,0.628,�k�k��,8.9,��
2020/12/30,20:10,0.656,0.929,0.597,1.176,0.827,0.377,0.668,0.627,�k�k��,8.7,��
2020/12/30,20:20,0.656,0.931,0.596,1.177,0.827,0.377,0.667,0.627,�k��,9.4,��
2020/12/30,20:30,0.656,0.930,0.597,1.175,0.825,0.377,0.667,0.629,�k�k��,9.3,��
2020/12/30,20:40,0.655,0.931,0.598,1.173,0.825,0.376,0.667,0.628,�k��,8.4,��
2020/12/30,20:50,0.656,0.930,0.597,1.175,0.826,0.376,0.666,0.629,�k�k��,7.0,��
2020/12/30,21:00,0.654,0.931,0.596,1.175,0.827,0.375,0.668,0.628,�k�k��,9.0,��
2020/12/30,21:10,0.656,0.929,0.596,1.173,0.826,0.376,0.668,0.628,�k�k��,8.2,��
2020/12/30,21:20,0.655,0.930,0.596,1.175,0.825,0.376,0.668,0.629,�k�k��,8.4,��
2020/12/30,21:30,0.656,0.929,0.596,1.174,0.824,0.374,0.666,0.629,�k�k��,8.8,��
2020/12/30,21:40,0.654,0.931,0.597,1.177,0.827,0.376,0.667,0.629,�k��,9.5,��
2020/12/30,21:50,0.654,0.931,0.596,1.175,0.827,0.375,0.668,0.627,�k��,8.3,��
2020/12/30,22:00,0.654,0.933,0.597,1.175,0.827,0.376,0.667,0.629,�k�k��,8.4,��
2020/12/30,22:10,0.655,0.930,0.597,1.175,0.828,0.375,0.669,0.628,�k�k��,7.3,��
2020/12/30,22:20,0.655,0.931,0.596,1.173,0.826,0.374,0.668,0.627,�k�k��,6.2,��
2020/12/30,22:30,0.657,0.930,0.597,1.174,0.824,0.376,0.668,0.628,�k�k��,9.3,��
2020/12/30,22:40,0.655,0.930,0.595,1.176,0.826,0.375,0.669,0.629,�k�k��,7.9,��
2020/12/30,22:50,0.656,0.930,0.596,1.175,0.825,0.374,0.667,0.627,�k�k��,8.2,��
2020/12/30,23:00,0.655,0.929,0.597,1.175,0.825,0.375,0.669,0.628,�k��,11.8,��
2020/12/30,23:10,0.655,0.929,0.597,1.176,0.823,0.374,0.667,0.628,�k��,11.8,��
2020/12/30,23:20,0.655,0.929,0.595,1.176,0.824,0.373,0.668,0.626,�k�k��,12.2,��
2020/12/30,23:30,0.656,0.930,0.596,1.177,0.826,0.374,0.667,0.629,�k�k��,10.6,��
2020/12/30,23:40,0.653,0.928,0.596,1.176,0.825,0.373,0.667,0.629,�k�k��,7.9,��
2020/12/30,23:50,0.655,0.927,0.596,1.176,0.822,0.373,0.667,0.630,�k,9.3,��
